Location: York
(31.8935°S, 116.7682°E)
Time: 11:02:16
(UTC+08:00)

Transit 2A - All Passes

Search period start: 13 June 2021 00:00
Search period end: 23 June 2021 00:00
Orbit: 601 x 957 km, 66.7° (Epoch: 12 June)

Date Brightness Start Highest point End Pass type
(mag) Time Alt. Az. Time Alt. Az. Time Alt. Az.
13 Jun - 04:39:35 10° NNE 04:44:19 24° ENE 04:49:12 10° SE visible
13 Jun - 06:21:12 10° NW 06:27:10 49° WSW 06:33:22 10° SSE visible
13 Jun - 15:14:03 10° SSW 15:19:36 54° ESE 15:24:32 10° NE daylight
13 Jun - 16:59:15 10° WSW 17:02:04 14° WNW 17:04:44 10° NW daylight
14 Jun - 04:06:56 10° NE 04:10:23 15° ENE 04:13:53 10° ESE visible
14 Jun - 05:46:45 10° NNW 05:52:55 70° WSW 05:59:20 10° SSE visible
14 Jun - 07:35:19 10° WSW 07:37:16 11° SW 07:39:14 10° SSW daylight
14 Jun - 14:40:06 10° S 14:45:17 36° ESE 14:49:58 10° NE daylight
14 Jun - 16:23:56 10° SW 16:28:09 23° WNW 16:32:02 10° NNW daylight
15 Jun - 05:12:32 10° NNW 05:18:43 82° ENE 05:25:09 10° SSE visible
15 Jun - 06:58:52 10° W 07:02:42 16° SW 07:06:33 10° SSW daylight
15 Jun - 14:06:19 10° S 14:10:54 24° SE 14:15:05 10° ENE daylight
15 Jun - 15:49:11 10° SW 15:54:11 36° WNW 15:58:42 10° N daylight
16 Jun - 04:38:35 10° N 04:44:36 56° ENE 04:50:50 10° SE visible
16 Jun - 06:23:21 10° WNW 06:28:12 23° SW 06:33:09 10° S visible
16 Jun - 13:32:50 10° S 13:36:25 17° SE 13:39:47 10° E daylight
16 Jun - 15:14:42 10° SSW 15:20:09 58° WNW 15:24:59 10° N daylight
17 Jun - 04:04:54 10° N 04:10:31 38° ENE 04:16:21 10° SE visible
17 Jun - 05:48:16 10° WNW 05:53:47 32° WSW 05:59:26 10° S visible
17 Jun - 13:00:02 10° SSE 13:01:52 11° SE 13:03:39 10° ESE daylight
17 Jun - 14:40:25 10° SSW 14:46:01 90° N 14:50:59 10° NNE daylight
18 Jun - 03:31:34 10° NNE 03:36:31 26° ENE 03:41:36 10° SE visible
18 Jun - 05:13:30 10° NW 05:19:27 45° WSW 05:25:34 10° SSE visible
18 Jun - 14:06:17 10° SSW 14:11:48 58° ESE 14:16:43 10° NE daylight
18 Jun - 15:51:57 10° WSW 15:54:12 13° W 15:56:22 10° NW daylight
19 Jun - 02:58:45 10° NE 03:02:34 17° ENE 03:06:26 10° ESE visible
19 Jun - 04:39:00 10° NW 04:45:10 65° WSW 04:51:33 10° SSE visible
19 Jun - 06:28:22 10° WSW 06:29:36 11° SW 06:30:49 10° SW visible
19 Jun - 13:32:19 10° S 13:37:31 38° ESE 13:42:12 10° NE daylight
19 Jun - 15:16:22 10° WSW 15:20:18 21° WNW 15:23:56 10° NNW daylight
20 Jun - 02:27:37 10° ENE 02:28:39 10° E 02:29:41 10° E night (unlit)
20 Jun - 04:04:44 10° NNW 04:10:58 88° ENE 04:17:24 10° SSE visible
20 Jun - 05:51:26 10° W 05:55:00 15° SW 05:58:35 10° SSW visible
20 Jun - 12:58:31 10° S 13:03:08 26° SE 13:07:22 10° ENE daylight
20 Jun - 14:41:31 10° SW 14:46:20 33° WNW 14:50:41 10° N daylight
21 Jun - 03:30:44 10° N 03:36:49 61° ENE 03:43:07 10° SSE visible
21 Jun - 05:15:48 10° W 05:20:30 21° SW 05:25:16 10° S visible
21 Jun - 12:24:57 10° S 12:28:40 18° SE 12:32:10 10° E daylight
21 Jun - 14:07:00 10° SW 14:12:18 52° WNW 14:17:03 10° N daylight
22 Jun - 02:57:00 10° N 03:02:45 41° ENE 03:08:40 10° SE visible
22 Jun - 04:40:38 10° WNW 04:46:04 30° SW 04:51:36 10° S visible
22 Jun - 11:51:58 10° SSE 11:54:08 12° SE 11:56:13 10° ESE daylight
22 Jun - 13:32:40 10° SSW 13:38:12 83° WNW 13:43:06 10° NNE daylight
